Weather History for West Point, VA

Change the Weather History Date:

Sunday, May 26, 2013

  Actual Average (KRIC) Record (KRIC)
Temperature  
Mean Temperature 56 °F 69 °F  
Max Temperature 72 °F 80 °F 94 °F (1953)
Min Temperature 41 °F 58 °F 42 °F (1925)
Degree Days  
Heating Degree Days 8 1  
Month to date heating degree days 69  
Since 1 July heating degree days 3761  
Cooling Degree Days 0 5  
Month to date cooling degree days 86  
Year to date cooling degree days 128  
Growing Degree Days 6 (Base 50)    
Moisture  
Dew Point 43 °F    
Average Humidity 61    
Maximum Humidity 99    
Minimum Humidity 30    
Precipitation  
Precipitation 0.00 in 0.13 in 1.93 in (1945)
Month to date precipitation 3.13  
Year to date precipitation 16.24  
Snow  
Snow 0.00 in 0.00 in 0.00 in (2002)
Month to date snowfall 0.0  
Since 1 July snowfall 10.3  
Snow Depth -    
Sea Level Pressure  
Sea Level Pressure 30.21 in    
Wind  
Wind Speed 3 mph (WNW)    
Max Wind Speed 13 mph    
Max Gust Speed 17 mph    
Visibility 10 miles    
Events      
T = Trace of Precipitation, MM = Missing Value Source: NWS Daily Summary

Daily Weather History Graph

Daily Weather History Graph

Search for Another Location

Airport:

Trip Planner

Search our weather history database for the weather conditions in past years. The results will help you decide how hot, cold, wet, or windy it might be!

Date:

Astronomy

May. 26, 2013 Rise Set
Actual Time 5:50 AM EDT 8:18 PM EDT
Civil Twilight 5:19 AM EDT 8:48 PM EDT
Nautical Twilight 4:42 AM EDT 9:26 PM EDT
Astronomical Twilight 4:01 AM EDT 10:07 PM EDT
Moon 10:04 PM EDT (5/26) 7:16 AM EDT (5/26)
Length of Visible Light 15h 28m
Length of Day
14h 28m
Waning Gibbous, 97% of the Moon is Illuminated
May 26
Waning Gibbous
May 31
Last Quarter
Jun 8
New
Jun 16
First Quarter
Jun 23
Full

Hourly Weather History & Observations

Time (EDT) Temp. Windchill Dew Point Humidity Pressure Visibility Wind Dir Wind Speed Gust Speed Precip Events Conditions
12:15 AM 45.9 °F - 43.5 °F 92% 30.20 in 10.0 mi Calm Calm - N/A   Clear
12:35 AM 44.8 °F - 42.8 °F 93% 30.20 in 10.0 mi Calm Calm - N/A   Clear
12:55 AM 45.7 °F - 43.9 °F 93% 30.20 in 10.0 mi Calm Calm - N/A   Clear
1:15 AM 44.2 °F - 43.2 °F 96% 30.19 in 10.0 mi Calm Calm - N/A   Clear
1:35 AM 44.6 °F - 43.5 °F 96% 30.20 in 10.0 mi Calm Calm - N/A   Clear
1:55 AM 45.3 °F - 44.2 °F 96% 30.19 in 10.0 mi Calm Calm - N/A   Clear
2:15 AM 41.9 °F - 41.2 °F 97% 30.19 in 10.0 mi Calm Calm - N/A   Clear
2:35 AM 43.7 °F 42.1 °F 43.3 °F 99% 30.19 in 10.0 mi NNW 3.5 mph - N/A   Clear
2:55 AM 50.7 °F - 43.9 °F 77% 30.19 in 10.0 mi Calm Calm - N/A   Clear
3:15 AM 50.5 °F - 45.5 °F 83% 30.19 in 10.0 mi NNW 3.5 mph - N/A   Clear
3:35 AM 50.5 °F - 45.5 °F 83% 30.19 in 10.0 mi Calm Calm - N/A   Clear
3:55 AM 50.9 °F - 45.1 °F 81% 30.19 in 10.0 mi NW 4.6 mph - N/A   Clear
4:15 AM 50.9 °F - 44.4 °F 78% 30.19 in 10.0 mi NNW 3.5 mph - N/A   Clear
4:35 AM 50.7 °F - 42.4 °F 73% 30.20 in 10.0 mi NNW 4.6 mph - N/A   Clear
4:55 AM 50.9 °F - 42.3 °F 72% 30.20 in 10.0 mi Calm Calm - N/A   Clear
5:15 AM 50.4 °F - 41.9 °F 73% 30.21 in 10.0 mi Calm Calm - N/A   Clear
5:35 AM 49.6 °F - 42.1 °F 75% 30.21 in 10.0 mi Calm Calm - N/A   Clear
5:55 AM 48.6 °F - 41.9 °F 78% 30.21 in 10.0 mi Calm Calm - N/A   Clear
6:15 AM 49.3 °F - 42.3 °F 77% 30.22 in 10.0 mi NNW 3.5 mph - N/A   Clear
6:35 AM 50.0 °F - 42.6 °F 76% 30.23 in 10.0 mi North 3.5 mph - N/A   Clear
6:55 AM 51.6 °F - 42.6 °F 71% 30.23 in 10.0 mi NNW 3.5 mph - N/A   Clear
7:15 AM 52.0 °F - 43.2 °F 72% 30.24 in 10.0 mi North 3.5 mph - N/A   Clear
7:35 AM 53.6 °F - 42.4 °F 66% 30.24 in 10.0 mi NW 3.5 mph - N/A   Clear
7:55 AM 54.5 °F - 41.7 °F 62% 30.24 in 10.0 mi NNW 5.8 mph - N/A   Clear
8:15 AM 56.5 °F - 43.7 °F 62% 30.25 in 10.0 mi WNW 4.6 mph - N/A   Clear
8:35 AM 57.9 °F - 42.8 °F 57% 30.26 in 10.0 mi NW 8.1 mph - N/A   Clear
8:55 AM 58.8 °F - 43.0 °F 56% 30.26 in 10.0 mi NNW 5.8 mph - N/A   Clear
9:15 AM 60.4 °F - 42.6 °F 52% 30.26 in 10.0 mi WNW 4.6 mph - N/A   Clear
9:35 AM 60.6 °F - 41.2 °F 49% 30.26 in 10.0 mi NW 9.2 mph - N/A   Clear
9:55 AM 61.9 °F - 40.6 °F 46% 30.26 in 10.0 mi NW 6.9 mph - N/A   Clear
10:15 AM 63.0 °F - 39.7 °F 42% 30.26 in 10.0 mi WNW 6.9 mph - N/A   Clear
10:35 AM 63.9 °F - 39.6 °F 41% 30.26 in 10.0 mi WNW 9.2 mph - N/A   Clear
10:55 AM 64.4 °F - 39.4 °F 40% 30.26 in 10.0 mi NW 5.8 mph - N/A   Clear
11:15 AM 64.8 °F - 38.8 °F 38% 30.25 in 10.0 mi WNW 8.1 mph 17.3 mph N/A   Clear
11:35 AM 65.5 °F - 41.4 °F 41% 30.24 in 10.0 mi West 8.1 mph - N/A   Clear
11:55 AM 66.2 °F - 39.9 °F 38% 30.23 in 10.0 mi NW 8.1 mph - N/A   Clear
12:15 PM 67.1 °F - 40.3 °F 38% 30.23 in 10.0 mi WNW 8.1 mph - N/A   Clear
12:35 PM 67.5 °F - 41.0 °F 38% 30.23 in 10.0 mi West 5.8 mph - N/A   Clear
12:55 PM 68.4 °F - 42.1 °F 38% 30.22 in 10.0 mi West 6.9 mph - N/A   Clear
1:15 PM 68.4 °F - 39.9 °F 35% 30.22 in 10.0 mi WNW 6.9 mph - N/A   Clear
1:35 PM 69.3 °F - 40.6 °F 35% 30.21 in 10.0 mi WNW 9.2 mph 16.1 mph N/A   Clear
1:55 PM 69.8 °F - 40.5 °F 34% 30.20 in 10.0 mi WSW 6.9 mph 10.4 mph N/A   Clear
2:15 PM 70.0 °F - 40.8 °F 35% 30.19 in 10.0 mi West 10.4 mph - N/A   Clear
2:35 PM 70.9 °F - 41.2 °F 34% 30.19 in 10.0 mi West 8.1 mph - N/A   Clear
2:55 PM 71.1 °F - 40.5 °F 33% 30.18 in 10.0 mi West 4.6 mph 16.1 mph N/A   Clear
3:15 PM 71.4 °F - 41.2 °F 33% 30.18 in 10.0 mi WNW 6.9 mph - N/A   Clear
3:35 PM 71.8 °F - 40.6 °F 32% 30.17 in 10.0 mi WNW 8.1 mph - N/A   Clear
3:55 PM 72.1 °F - 41.9 °F 34% 30.18 in 10.0 mi West 9.2 mph - N/A   Clear
4:15 PM 72.5 °F - 40.6 °F 32% 30.17 in 10.0 mi WSW 12.7 mph 16.1 mph N/A   Clear
4:35 PM 72.5 °F - 40.3 °F 31% 30.17 in 10.0 mi West 8.1 mph - N/A   Clear
4:55 PM 72.5 °F - 41.9 °F 33% 30.17 in 10.0 mi West 6.9 mph - N/A   Clear
5:15 PM 72.9 °F - 41.9 °F 33% 30.17 in 10.0 mi WNW 6.9 mph - N/A   Clear
5:35 PM 72.9 °F - 42.3 °F 33% 30.16 in 10.0 mi West 5.8 mph - N/A   Clear
5:55 PM 72.5 °F - 39.2 °F 30% 30.16 in 10.0 mi West 8.1 mph - N/A   Clear
6:15 PM 72.3 °F - 40.1 °F 31% 30.17 in 10.0 mi West 6.9 mph - N/A   Clear
6:35 PM 72.0 °F - 40.1 °F 32% 30.17 in 10.0 mi West 5.8 mph - N/A   Clear
6:55 PM 71.2 °F - 39.6 °F 32% 30.17 in 10.0 mi West 5.8 mph - N/A   Clear
7:15 PM 70.3 °F - 40.8 °F 34% 30.17 in 10.0 mi West 4.6 mph - N/A   Clear
7:35 PM 69.1 °F - 41.7 °F 37% 30.18 in 10.0 mi West 3.5 mph - N/A   Clear
7:55 PM 65.1 °F - 48.4 °F 55% 30.19 in 10.0 mi Calm Calm - N/A   Clear
8:15 PM 61.2 °F - 47.5 °F 61% 30.19 in 10.0 mi Calm Calm - N/A   Clear
8:35 PM 58.6 °F - 48.2 °F 68% 30.19 in 10.0 mi Calm Calm - N/A   Clear
8:55 PM 56.1 °F - 48.0 °F 74% 30.19 in 10.0 mi East 3.5 mph - N/A   Clear
9:15 PM 54.5 °F - 48.2 °F 79% 30.20 in 10.0 mi Calm Calm - N/A   Clear
9:35 PM 54.5 °F - 47.8 °F 78% 30.21 in 10.0 mi Calm Calm - N/A   Clear
9:55 PM 52.2 °F - 48.2 °F 86% 30.21 in 10.0 mi Calm Calm - N/A   Clear
10:15 PM 51.8 °F - 48.4 °F 88% 30.22 in 10.0 mi Calm Calm - N/A   Clear
10:35 PM 51.1 °F - 48.7 °F 92% 30.23 in 10.0 mi Calm Calm - N/A   Clear
10:55 PM 49.6 °F - 47.3 °F 92% 30.23 in 10.0 mi Calm Calm - N/A   Clear
11:15 PM 50.0 °F - 48.9 °F 96% 30.23 in 10.0 mi Calm Calm - N/A   Clear
11:35 PM 47.7 °F - 47.1 °F 98% 30.24 in 10.0 mi Calm Calm - N/A   Clear
11:55 PM 49.1 °F - 48.2 °F 97% 30.24 in 10.0 mi Calm Calm - N/A   Clear